4XCWH LLMG-LLHA

Flight info

Callsign 4XCWH
Flight time N/A
Altitude 2498
Route CVFR
Aircraft C152/L-VD/A

Departure

Time 2026-04-25 13:42
Airport Megiddo Airport (LLMG)

Arrival

Time N/A
Airport Uri Michaeli Haifa International Airport (LLHA)
Time Latitude Longitude Altitude Speed Heading
2026-04-25 13:34 32.59482 35.23703 173 ft 0 kts 340°
2026-04-25 13:37 32.59472 35.23688 174 ft 7 kts 188°
2026-04-25 13:37 32.59465 35.23626 174 ft 8 kts 298°
2026-04-25 13:37 32.59555 35.23556 172 ft 21 kts 329°
2026-04-25 13:37 32.59610 35.23518 170 ft 27 kts 328°
2026-04-25 13:38 32.59684 35.23452 170 ft 18 kts 299°
2026-04-25 13:38 32.59702 35.23325 172 ft 14 kts 272°
2026-04-25 13:39 32.59712 35.23169 173 ft 22 kts 275°
2026-04-25 13:39 32.59714 35.22969 177 ft 39 kts 271°
2026-04-25 13:39 32.59725 35.22521 177 ft 54 kts 272°
2026-04-25 13:39 32.59734 35.22170 174 ft 35 kts 272°
2026-04-25 13:40 32.59729 35.22040 176 ft 4 kts 144°
2026-04-25 13:40 32.59728 35.22053 176 ft 4 kts 75°
2026-04-25 13:40 32.59732 35.22071 175 ft 5 kts 85°
2026-04-25 13:40 32.59729 35.22274 175 ft 52 kts 91°
2026-04-25 13:41 32.59711 35.22867 238 ft 81 kts 92°
2026-04-25 13:41 32.59658 35.23535 392 ft 86 kts 91°
2026-04-25 13:41 32.59615 35.24177 612 ft 75 kts 87°
2026-04-25 13:41 32.59623 35.24869 707 ft 88 kts 86°
2026-04-25 13:42 32.59622 35.25521 963 ft 75 kts 83°
2026-04-25 13:42 32.59646 35.26254 993 ft 98 kts 81°
2026-04-25 13:42 32.59657 35.27133 993 ft 115 kts 88°
2026-04-25 13:42 32.59653 35.27269 1012 ft 114 kts 87°
2026-04-25 13:43 32.59638 35.27653 1052 ft 115 kts 86°
2026-04-25 13:43 32.59573 35.28555 1201 ft 100 kts 95°
2026-04-25 13:43 32.59548 35.28773 1252 ft 96 kts 96°